Regional Weather Roundup
Issued by NWS

Home | Current Version | Previous Version | Graphics & Text | Print | Product List | Glossary On
Versions: 1 2 3 4 5 6 7 8 9 10 11 12 13 14 15 16 17 18 19 20 21 22 23 24 25 26 27 28 29 30 31 32 33 34 35 36 37 38 39 40 41 42 43 44 45 46 47 48 49
000
ASUS45 KSLC 231310
RWRUT

UTAH REGIONAL WEATHER ROUNDUP
NATIONAL WEATHER SERVICE SALT LAKE CITY UT
700 AM MDT WED JUL 23 2014

UTZ001>011-023>025-231400-

NORTHERN UTAH

CITY           SKY/WX    TMP DP  RH WIND       PRES   REMARKS
HILL AFB       CLEAR     69  35  28 E17       30.17R
LOGAN          NOT AVBL
OGDEN          CLEAR     69  35  28 S8        30.14R
PROVO AIRPORT  PTCLDY    61  43  51 VRB3      30.19S
SALT LAKE CITY PTCLDY    77  35  21 SE12      30.11R
VERNAL         PTCLDY    62  34  35 NW3       30.28R
WENDOVER       CLEAR     70  27  19 NE8       30.12R
HEBER CITY     CLEAR     52  41  66 CALM      30.30R
WEST JORDAN    CLEAR     79  45  29 SE15      30.16R

$$

UTZ012>022-026-027-231400-

SOUTHERN UTAH

CITY           SKY/WX    TMP DP  RH WIND       PRES   REMARKS
BRYCE CANYON   MOCLDY    54  35  48 W8        30.46R
CEDAR CITY     PTCLDY    62  37  39 CALM      30.26R
MILFORD        CLEAR     61  35  37 S10       30.21R
MOAB/CYNLANDS  CLEAR     80  43  26 SE3       30.19R
PRICE          MOCLDY    67  16  14 NW5       30.32R
ST GEORGE      SUNNY     75  28  17 SE5       30.08R
KANAB            N/A     64  36  34 NE3       30.27R

$$

REGIONAL REPORTS     COLORADO/ARIZONA

CITY           SKY/WX    TMP DP  RH WIND       PRES   REMARKS
CRAIG, CO      CLEAR     46  41  82 CALM      30.37S
GRAND JUNCTION CLEAR     71  32  23 S9        30.25R
RIFLE          CLEAR     63  35  35 CALM      30.34R
MONTROSE       PTCLDY    66  43  43 S5        30.36S
CORTEZ         CLEAR     72  42  34 CALM      30.36R
PAGE, AZ       CLEAR     82  41  23 W3        30.18R
GRAND CANYON   PTCLDY    56  42  59 CALM      30.38R
KINGMAN        CLEAR     75  35  23 S5        30.10R
FLAGSTAFF      PTCLDY    54  40  59 CALM      30.42R

$$

REGIONAL REPORTS    NEVADA/IDAHO/WYOMING

CITY           SKY/WX    TMP DP  RH WIND       PRES   REMARKS
LAS VEGAS, NV  CLEAR     84  29  13 S8        29.95R
ELY            CLEAR     51  21  30 S12       30.29S
ELKO           CLEAR     59  40  49 NE5       30.18S
POCATELLO, ID  CLEAR     63  48  58 S9        30.17R
BURLEY         PTCLDY    67  46  47 SW12      30.12R
EVANSTON, WY   CLEAR     60  28  29 S9        30.37S
ROCK SPRINGS   PTCLDY    59  23  25 SE3       30.36R

$$



USA.gov is the U.S. government's official web portal to all federal, state and local government web resources and services.